Content
SEND FEEDBACK

Daily
Averages
Monthly
Summary
United States of America

BARRINGTON, ILLINOIS


Home > North America > United States > Illinois
Elevation: 810 feet     Latitude: 42 10N     Longitude: 088 09W

WEATHER
 
SELECT A DAY
Number of Records: 196,660;   Date Range: 1/1/95 - 8/28/14
 
SHARE

PRINT THIS DATA

[ ← Previous Day ]
WEATHER ALMANAC - NOVEMBER 5, 2013
[ Next Day → ]
[ °C ]   °F
Weather ElementAverageHighLow
Temperature52.7 °F54 °F (9:51 am)50 °F (4:51 am)
Dewpoint48.1 °F51.8 °F (2:28 pm)44.1 °F (1:51 am)
Humidity84.6 %94 % (2:28 pm)72 % (8:51 pm)
Barometer30.13 in30.27 in (7:51 am)29.95 in (11:51 pm)
Wind Speed12.4 mph23 mph (10:08 pm)
Wind Gust32.2 mph (9:51 pm)
Weather ElementAverage
Visibility9.2 mi
Wind DirectionS (176.1 °)

Weather ElementTotal
Precipitation0.07 in
Heating Degree Days13 (Base 65)
Growing Degree Days2 (Base 50)
Averaged from 33 records on November 5, 2013
WEATHER CONDITIONS BREAKOUT
WIND DIRECTION BREAKOUT
WEATHER BY HOUR - NOVEMBER 5, 2013
[ °C ]   °F
Local TimeTemperatureDewpointHumidityBarometerVisibilityWind DirectionWind SpeedGust SpeedPrecipitationEventsConditions
1:51 AM52.0 °F44.1 °F74 %30.21 in10.0 miSSW (200°)8.1 mphOvercast
2:51 AM52.0 °F44.1 °F74 %30.21 in10.0 miSouth (190°)8.1 mphOvercast
3:51 AM51.1 °F45.0 °F80 %30.23 in10.0 miSouth (190°)3.5 mphOvercast
4:51 AM50.0 °F45.0 °F83 %30.23 in10.0 miSouth (170°)4.6 mphOvercast
5:51 AM51.1 °F45.0 °F80 %30.24 in10.0 miSouth (170°)6.9 mphOvercast
6:51 AM50.0 °F45.0 °F83 %30.25 in10.0 miSouth (180°)4.6 mphOvercast
7:51 AM51.1 °F45.0 °F80 %30.27 in10.0 miSouth (180°)3.5 mphOvercast
8:51 AM53.1 °F46.0 °F77 %30.25 in10.0 miSouth (190°)8.1 mphMostly Cloudy
9:51 AM54.0 °F46.9 °F77 %30.26 in10.0 miSouth (190°)8.1 mphOvercast
10:51 AM54.0 °F48.0 °F80 %30.25 in10.0 miSouth (180°)5.8 mphOvercast
11:51 AM54.0 °F48.0 °F80 %30.23 in10.0 miSouth (170°)12.7 mphOvercast
12:51 PM53.1 °F48.9 °F86 %30.20 in10.0 miSouth (180°)15.0 mph0.00 inRainLight Rain
1:04 PM53.6 °F50.0 °F88 %30.19 in6.0 miSouth (190°)15.0 mph0.00 inRainLight Rain
1:51 PM53.1 °F51.1 °F93 %30.18 in10.0 miSouth (180°)9.2 mph0.01 inOvercast
2:28 PM53.6 °F51.8 °F94 %30.16 in10.0 miSouth (180°)11.5 mph0.00 inRainLight Rain
2:51 PM53.1 °F51.1 °F93 %30.16 in9.0 miSouth (180°)9.2 mph0.00 inOvercast
3:13 PM53.6 °F50.0 °F88 %30.14 in10.0 miSouth (170°)15.0 mphOvercast
3:34 PM53.6 °F50.0 °F88 %30.13 in10.0 miSouth (170°)12.7 mphOvercast
3:51 PM53.1 °F50.0 °F89 %30.14 in10.0 miSouth (170°)12.7 mph0.00 inRainLight Rain
3:59 PM53.6 °F50.0 °F88 %30.13 in9.0 miSSE (160°)11.5 mph0.00 inRainLight Rain
4:51 PM53.1 °F50.0 °F89 %30.11 in7.0 miSSE (160°)11.5 mph0.01 inRainLight Rain
5:51 PM53.1 °F48.9 °F86 %30.10 in10.0 miSSE (160°)11.5 mph0.00 inOvercast
6:51 PM53.1 °F46.9 °F80 %30.09 in10.0 miSSE (160°)16.1 mphOvercast
7:51 PM53.1 °F46.0 °F77 %30.06 in10.0 miSSE (160°)17.3 mph21.9 mphOvercast
8:51 PM54.0 °F45.0 °F72 %30.02 in10.0 miSouth (170°)16.1 mphOvercast
9:51 PM54.0 °F48.0 °F80 %30.01 in10.0 miSouth (180°)21.9 mph32.2 mphOvercast
10:08 PM53.6 °F48.2 °F82 %30.00 in8.0 miSouth (180°)23.0 mph31.1 mph0.00 inRainLight Rain
10:22 PM51.8 °F50.0 °F94 %30.00 in3.0 miSouth (180°)20.7 mph31.1 mph0.01 inRainLight Rain
10:37 PM51.8 °F50.0 °F94 %29.99 in5.0 miSouth (180°)18.4 mph0.02 inRainLight Rain
10:51 PM52.0 °F50.0 °F93 %29.99 in9.0 miSouth (170°)17.3 mph0.02 inRainLight Rain
10:53 PM51.8 °F50.0 °F94 %29.98 in9.0 miSouth (170°)15.0 mph0.00 inRainLight Rain
11:00 PM51.8 °F50.0 °F94 %29.97 in10.0 miSouth (170°)15.0 mph23.0 mph0.00 inRainLight Rain
11:51 PM54.0 °F48.9 °F83 %29.95 in10.0 miSouth (180°)19.6 mph28.8 mph0.00 inOvercast
Hourly data recorded from KORD, located miles away from Barrington, Illinois







STORIES FROM OUR PARTNERS